Time,TemperatureF,DewpointF,PressureIn,WindDirection,WindDirectionDegrees,WindSpeedMPH,WindSpeedGustMPH,Humidity,HourlyPrecipIn,Conditions,Clouds,dailyrainin,SoftwareType,DateUTC
2013-05-05 00:02:00,54.0,53.0,29.90,West,276,0.0,0.0,98,0.14,,,1.79,,2013-05-05 04:02:00,
2013-05-05 00:12:00,54.0,53.0,29.90,West,276,0.0,0.0,98,0.14,,,1.79,,2013-05-05 04:12:00,
2013-05-05 00:23:00,54.0,53.0,29.90,West,276,0.0,0.0,98,0.14,,,1.81,,2013-05-05 04:23:00,
2013-05-05 00:32:00,54.0,53.0,29.89,West,276,0.0,0.0,98,0.09,,,1.83,,2013-05-05 04:32:00,
2013-05-05 00:43:00,54.0,53.0,29.89,West,276,0.0,0.0,98,0.09,,,1.83,,2013-05-05 04:43:00,
2013-05-05 00:52:00,54.0,53.0,29.89,West,276,0.0,0.0,98,0.09,,,1.84,,2013-05-05 04:52:00,
2013-05-05 01:02:00,54.0,53.0,29.88,West,276,0.0,0.0,98,0.10,,,1.89,,2013-05-05 05:02:00,
2013-05-05 01:12:00,54.0,53.0,29.88,West,276,0.0,0.0,98,0.10,,,1.89,,2013-05-05 05:12:00,
2013-05-05 01:22:00,54.0,53.0,29.87,West,276,0.0,0.0,98,0.11,,,1.93,,2013-05-05 05:22:00,
2013-05-05 01:32:00,54.0,53.0,29.86,West,276,0.0,0.0,98,0.13,,,1.96,,2013-05-05 05:32:00,
2013-05-05 01:42:00,54.0,53.0,29.86,West,276,0.0,0.0,98,0.13,,,1.96,,2013-05-05 05:42:00,
2013-05-05 01:52:00,54.0,53.0,29.86,West,276,0.0,0.0,98,0.13,,,1.98,,2013-05-05 05:52:00,
2013-05-05 02:01:00,54.0,53.0,29.85,West,276,0.0,0.0,98,0.12,,,2.01,,2013-05-05 06:01:00,
2013-05-05 02:12:00,54.0,53.0,29.85,West,276,0.0,0.0,98,0.12,,,2.01,,2013-05-05 06:12:00,
2013-05-05 02:21:00,54.0,53.0,29.85,West,276,0.0,1.0,98,0.13,,,2.06,,2013-05-05 06:21:00,
2013-05-05 02:32:00,53.0,52.0,29.84,West,281,0.0,3.0,98,0.15,,,2.11,,2013-05-05 06:32:00,
2013-05-05 02:42:00,53.0,52.0,29.84,West,281,0.0,3.0,98,0.15,,,2.11,,2013-05-05 06:42:00,
2013-05-05 02:52:00,50.0,49.0,29.83,West,265,1.0,4.0,98,0.16,,,2.14,,2013-05-05 06:52:00,
2013-05-05 03:01:00,50.0,49.0,29.83,West,277,1.0,4.0,98,0.17,,,2.18,,2013-05-05 07:01:00,
2013-05-05 03:11:00,50.0,49.0,29.83,West,277,1.0,4.0,98,0.17,,,2.18,,2013-05-05 07:11:00,
2013-05-05 03:22:00,49.0,48.0,29.83,WNW,302,0.0,3.0,98,0.16,,,2.22,,2013-05-05 07:22:00,
2013-05-05 03:32:00,49.0,48.0,29.83,West,269,1.0,4.0,98,0.16,,,2.27,,2013-05-05 07:32:00,
2013-05-05 03:42:00,49.0,48.0,29.83,West,269,1.0,4.0,98,0.16,,,2.27,,2013-05-05 07:42:00,
2013-05-05 03:52:00,48.0,47.0,29.84,WNW,290,2.0,10.0,98,0.17,,,2.31,,2013-05-05 07:52:00,
2013-05-05 04:02:00,48.0,47.0,29.85,West,275,0.0,3.0,98,0.18,,,2.36,,2013-05-05 08:02:00,
2013-05-05 04:11:00,48.0,47.0,29.85,West,275,0.0,3.0,98,0.18,,,2.36,,2013-05-05 08:11:00,
2013-05-05 04:21:00,47.0,46.0,29.85,SSW,203,1.0,4.0,98,0.20,,,2.42,,2013-05-05 08:21:00,
2013-05-05 04:32:00,47.0,46.0,29.85,West,272,0.0,3.0,98,0.19,,,2.47,,2013-05-05 08:32:00,
2013-05-05 04:42:00,47.0,46.0,29.85,West,272,0.0,3.0,98,0.19,,,2.47,,2013-05-05 08:42:00,
2013-05-05 04:53:00,47.0,46.0,29.85,SW,236,0.0,2.0,98,0.18,,,2.49,,2013-05-05 08:53:00,
2013-05-05 05:01:00,47.0,46.0,29.85,South,181,0.0,3.0,98,0.19,,,2.56,,2013-05-05 09:01:00,
2013-05-05 05:11:00,47.0,46.0,29.85,South,181,0.0,3.0,98,0.19,,,2.56,,2013-05-05 09:11:00,
2013-05-05 05:21:00,47.0,46.0,29.85,WSW,247,0.0,1.0,98,0.18,,,2.61,,2013-05-05 09:21:00,
2013-05-05 05:33:00,47.0,46.0,29.83,WSW,246,0.0,0.0,98,0.18,,,2.65,,2013-05-05 09:33:00,
2013-05-05 05:42:00,47.0,46.0,29.83,WSW,246,0.0,0.0,98,0.18,,,2.65,,2013-05-05 09:42:00,
2013-05-05 05:52:00,47.0,46.0,29.83,WSW,246,0.0,0.0,98,0.17,,,2.67,,2013-05-05 09:52:00,
2013-05-05 06:03:00,47.0,46.0,29.83,SW,229,0.0,2.0,98,0.12,,,2.68,,2013-05-05 10:03:00,
2013-05-05 06:12:00,47.0,46.0,29.83,SW,229,0.0,2.0,98,0.12,,,2.68,,2013-05-05 10:12:00,
2013-05-05 06:22:00,48.0,47.0,29.84,SW,229,0.0,0.0,98,0.09,,,2.70,,2013-05-05 10:22:00,
2013-05-05 06:32:00,48.0,47.0,29.85,SW,229,0.0,0.0,98,0.05,,,2.70,,2013-05-05 10:32:00,
2013-05-05 06:42:00,48.0,47.0,29.85,SW,229,0.0,0.0,98,0.05,,,2.70,,2013-05-05 10:42:00,
2013-05-05 06:53:00,48.0,47.0,29.84,SW,229,0.0,0.0,98,0.03,,,2.70,,2013-05-05 10:53:00,
2013-05-05 07:01:00,48.0,47.0,29.85,SW,229,0.0,0.0,98,0.02,,,2.70,,2013-05-05 11:01:00,
2013-05-05 07:12:00,48.0,47.0,29.85,SW,229,0.0,0.0,98,0.02,,,2.70,,2013-05-05 11:12:00,
2013-05-05 07:22:00,48.0,47.0,29.84,SW,229,0.0,0.0,98,0.00,,,2.64,,2013-05-05 11:22:00,
2013-05-05 07:32:00,48.0,47.0,29.85,South,188,0.0,0.0,98,0.00,,,2.64,,2013-05-05 11:32:00,
2013-05-05 07:42:00,48.0,47.0,29.85,South,188,0.0,0.0,98,0.00,,,2.64,,2013-05-05 11:42:00,
2013-05-05 07:52:00,48.0,47.0,29.85,South,191,0.0,0.0,98,0.00,,,2.64,,2013-05-05 11:52:00,
2013-05-05 08:02:00,48.0,47.0,29.85,South,189,0.0,0.0,98,0.00,,,2.64,,2013-05-05 12:02:00,
2013-05-05 08:11:00,48.0,47.0,29.85,South,189,0.0,0.0,98,0.00,,,2.64,,2013-05-05 12:11:00,
2013-05-05 08:22:00,48.0,47.0,29.86,NNW,336,0.0,3.0,98,0.00,,,2.46,,2013-05-05 12:22:00,
2013-05-05 08:32:00,48.0,47.0,29.86,NNW,336,0.0,1.0,98,0.00,,,2.46,,2013-05-05 12:32:00,
2013-05-05 08:42:00,48.0,47.0,29.86,NNW,336,0.0,1.0,98,0.00,,,2.46,,2013-05-05 12:42:00,
2013-05-05 08:52:00,49.0,48.0,29.86,NNW,336,0.0,0.0,98,0.00,,,2.46,,2013-05-05 12:52:00,
2013-05-05 09:01:00,49.0,48.0,29.86,NNW,336,0.0,1.0,98,0.00,,,2.46,,2013-05-05 13:01:00,
2013-05-05 09:11:00,49.0,48.0,29.86,NNW,336,0.0,1.0,98,0.00,,,2.46,,2013-05-05 13:11:00,
2013-05-05 09:21:00,49.0,48.0,29.86,NNW,342,0.0,1.0,98,0.00,,,2.39,,2013-05-05 13:21:00,
2013-05-05 09:32:00,49.0,48.0,29.86,NNW,342,0.0,1.0,98,0.00,,,2.39,,2013-05-05 13:32:00,
2013-05-05 09:42:00,49.0,48.0,29.86,NNW,342,0.0,1.0,98,0.00,,,2.39,,2013-05-05 13:42:00,
2013-05-05 09:52:00,50.0,49.0,29.86,NNE,14,0.0,0.0,98,0.00,,,2.39,,2013-05-05 13:52:00,
2013-05-05 10:02:00,50.0,49.0,29.86,East,85,0.0,0.0,98,0.00,,,2.39,,2013-05-05 14:02:00,
2013-05-05 10:11:00,50.0,49.0,29.86,East,85,0.0,0.0,98,0.00,,,2.39,,2013-05-05 14:11:00,
2013-05-05 10:21:00,50.0,49.0,29.86,East,85,0.0,0.0,98,0.00,,,2.39,,2013-05-05 14:21:00,
2013-05-05 10:32:00,50.0,49.0,29.86,East,85,0.0,0.0,98,0.00,,,2.39,,2013-05-05 14:32:00,
2013-05-05 10:42:00,50.0,49.0,29.86,East,85,0.0,0.0,98,0.00,,,2.39,,2013-05-05 14:42:00,
2013-05-05 10:52:00,50.0,49.0,29.86,SE,139,0.0,0.0,97,0.00,,,2.39,,2013-05-05 14:52:00,
2013-05-05 11:02:00,51.0,50.0,29.86,SSW,196,0.0,1.0,97,0.00,,,2.39,,2013-05-05 15:02:00,
2013-05-05 11:11:00,51.0,50.0,29.86,SSW,196,0.0,1.0,97,0.00,,,2.39,,2013-05-05 15:11:00,
2013-05-05 11:21:00,51.0,50.0,29.86,SSW,201,0.0,0.0,97,0.00,,,2.38,,2013-05-05 15:21:00,
2013-05-05 11:33:00,51.0,50.0,29.86,SSW,201,0.0,0.0,97,0.00,,,2.38,,2013-05-05 15:33:00,
2013-05-05 11:43:00,51.0,50.0,29.86,SSW,201,0.0,0.0,97,0.00,,,2.38,,2013-05-05 15:43:00,
2013-05-05 11:53:00,52.0,51.0,29.86,SSW,209,0.0,1.0,97,0.00,,,2.38,,2013-05-05 15:53:00,
2013-05-05 12:03:00,52.0,51.0,29.86,SSW,209,0.0,0.0,96,0.01,,,2.39,,2013-05-05 16:03:00,
2013-05-05 12:12:00,52.0,51.0,29.86,SSW,209,0.0,0.0,96,0.01,,,2.39,,2013-05-05 16:12:00,
2013-05-05 12:23:00,52.0,51.0,29.86,SSW,210,0.0,1.0,97,0.01,,,2.39,,2013-05-05 16:23:00,
2013-05-05 12:32:00,52.0,51.0,29.86,SSW,210,0.0,0.0,96,0.01,,,2.39,,2013-05-05 16:32:00,
2013-05-05 12:42:00,52.0,51.0,29.86,SSW,210,0.0,0.0,96,0.01,,,2.39,,2013-05-05 16:42:00,
2013-05-05 12:53:00,53.0,52.0,29.85,SW,214,0.0,0.0,96,0.01,,,2.39,,2013-05-05 16:53:00,
2013-05-05 13:02:00,53.0,52.0,29.86,SW,214,0.0,1.0,95,0.00,,,2.39,,2013-05-05 17:02:00,
2013-05-05 13:12:00,53.0,52.0,29.86,SW,214,0.0,1.0,95,0.00,,,2.39,,2013-05-05 17:12:00,
2013-05-05 13:23:00,53.0,52.0,29.85,SW,214,0.0,0.0,95,0.00,,,2.31,,2013-05-05 17:23:00,
2013-05-05 13:32:00,54.0,53.0,29.85,SW,214,0.0,0.0,96,0.00,,,2.31,,2013-05-05 17:32:00,
2013-05-05 13:42:00,54.0,53.0,29.85,SW,214,0.0,0.0,96,0.00,,,2.31,,2013-05-05 17:42:00,
2013-05-05 13:52:00,54.0,53.0,29.85,SSW,210,0.0,4.0,95,0.00,,,2.31,,2013-05-05 17:52:00,
2013-05-05 14:01:00,54.0,53.0,29.84,SSW,209,0.0,0.0,95,0.00,,,2.31,,2013-05-05 18:01:00,
2013-05-05 14:12:00,54.0,53.0,29.84,SSW,209,0.0,0.0,95,0.00,,,2.31,,2013-05-05 18:12:00,
2013-05-05 14:21:00,55.0,53.0,29.84,SSW,209,0.0,1.0,94,0.00,,,2.19,,2013-05-05 18:21:00,
2013-05-05 14:32:00,55.0,53.0,29.83,SW,229,0.0,1.0,92,0.00,,,2.19,,2013-05-05 18:32:00,
2013-05-05 14:42:00,55.0,53.0,29.83,SW,229,0.0,1.0,92,0.00,,,2.19,,2013-05-05 18:42:00,
2013-05-05 14:52:00,56.0,53.0,29.83,South,189,0.0,1.0,90,0.00,,,2.19,,2013-05-05 18:52:00,
2013-05-05 15:01:00,56.0,52.0,29.83,South,190,0.0,0.0,88,0.00,,,2.19,,2013-05-05 19:01:00,
2013-05-05 15:11:00,56.0,52.0,29.83,South,190,0.0,0.0,88,0.00,,,2.19,,2013-05-05 19:11:00,
2013-05-05 15:21:00,57.0,53.0,29.83,SW,225,0.0,1.0,87,0.01,,,2.10,,2013-05-05 19:21:00,
2013-05-05 15:32:00,57.0,54.0,29.83,SW,234,0.0,2.0,91,0.01,,,2.10,,2013-05-05 19:32:00,
2013-05-05 15:42:00,57.0,54.0,29.83,SW,234,0.0,2.0,91,0.01,,,2.10,,2013-05-05 19:42:00,
2013-05-05 15:52:00,57.0,54.0,29.83,SW,234,0.0,1.0,91,0.01,,,2.10,,2013-05-05 19:52:00,
2013-05-05 16:01:00,57.0,55.0,29.82,SW,234,0.0,0.0,92,0.01,,,2.10,,2013-05-05 20:01:00,
2013-05-05 16:11:00,57.0,55.0,29.82,SW,234,0.0,0.0,92,0.01,,,2.10,,2013-05-05 20:11:00,
2013-05-05 16:21:00,57.0,54.0,29.82,SW,234,0.0,0.0,89,0.00,,,1.94,,2013-05-05 20:21:00,
2013-05-05 16:32:00,57.0,54.0,29.81,SW,234,0.0,1.0,90,0.00,,,1.94,,2013-05-05 20:32:00,
2013-05-05 16:42:00,57.0,54.0,29.81,SW,234,0.0,1.0,90,0.00,,,1.94,,2013-05-05 20:42:00,
2013-05-05 16:52:00,57.0,54.0,29.80,SW,234,0.0,1.0,91,0.01,,,1.95,,2013-05-05 20:52:00,
2013-05-05 17:02:00,57.0,55.0,29.81,West,275,1.0,3.0,94,0.01,,,1.95,,2013-05-05 21:02:00,
2013-05-05 17:11:00,57.0,55.0,29.81,West,275,1.0,3.0,94,0.01,,,1.95,,2013-05-05 21:11:00,
2013-05-05 17:21:00,57.0,55.0,29.78,WNW,290,0.0,2.0,94,0.03,,,1.83,,2013-05-05 21:21:00,
2013-05-05 17:33:00,58.0,56.0,29.78,SW,234,0.0,2.0,94,0.03,,,1.83,,2013-05-05 21:33:00,
2013-05-05 17:42:00,58.0,56.0,29.78,SW,234,0.0,2.0,94,0.03,,,1.83,,2013-05-05 21:42:00,
2013-05-05 17:53:00,59.0,55.0,29.78,WSW,244,0.0,2.0,87,0.02,,,1.83,,2013-05-05 21:53:00,
2013-05-05 18:02:00,59.0,54.0,29.78,SW,230,0.0,2.0,83,0.02,,,1.83,,2013-05-05 22:02:00,
2013-05-05 18:12:00,59.0,54.0,29.78,SW,230,0.0,2.0,83,0.02,,,1.83,,2013-05-05 22:12:00,
2013-05-05 18:22:00,59.0,54.0,29.78,SW,230,0.0,2.0,83,0.00,,,1.56,,2013-05-05 22:22:00,
2013-05-05 18:33:00,59.0,54.0,29.78,SW,230,0.0,0.0,85,0.00,,,1.56,,2013-05-05 22:33:00,
2013-05-05 18:42:00,59.0,54.0,29.78,SW,230,0.0,0.0,85,0.00,,,1.56,,2013-05-05 22:42:00,
2013-05-05 18:52:00,58.0,54.0,29.78,SW,230,0.0,0.0,86,0.00,,,1.56,,2013-05-05 22:52:00,
2013-05-05 19:02:00,57.0,54.0,29.78,SW,230,0.0,0.0,89,0.00,,,1.56,,2013-05-05 23:02:00,
2013-05-05 19:11:00,57.0,54.0,29.78,SW,230,0.0,0.0,89,0.00,,,1.56,,2013-05-05 23:11:00,
2013-05-05 19:21:00,57.0,54.0,29.79,SW,230,0.0,0.0,91,0.00,,,1.43,,2013-05-05 23:21:00,
2013-05-05 19:32:00,56.0,53.0,29.80,SW,230,0.0,1.0,91,0.00,,,1.43,,2013-05-05 23:32:00,
2013-05-05 19:42:00,56.0,53.0,29.80,SW,230,0.0,1.0,91,0.00,,,1.43,,2013-05-05 23:42:00,
2013-05-05 19:52:00,55.0,51.0,29.81,WSW,256,1.0,6.0,87,0.02,,,1.45,,2013-05-05 23:52:00,
2013-05-05 20:01:00,53.0,50.0,29.81,WSW,242,1.0,9.0,88,0.04,,,1.47,,2013-05-06 00:01:00,
2013-05-05 20:11:00,53.0,50.0,29.81,WSW,242,1.0,9.0,88,0.04,,,1.47,,2013-05-06 00:11:00,
2013-05-05 20:21:00,52.0,49.0,29.81,South,190,0.0,3.0,91,0.06,,,1.44,,2013-05-06 00:21:00,
2013-05-05 20:32:00,52.0,50.0,29.83,SSW,193,0.0,1.0,92,0.06,,,1.44,,2013-05-06 00:32:00,
2013-05-05 20:41:00,52.0,50.0,29.83,SSW,193,0.0,1.0,92,0.06,,,1.44,,2013-05-06 00:41:00,
2013-05-05 20:52:00,52.0,50.0,29.83,SSW,193,0.0,1.0,94,0.05,,,1.45,,2013-05-06 00:52:00,
2013-05-05 21:01:00,51.0,49.0,29.83,SSW,193,0.0,0.0,94,0.05,,,1.47,,2013-05-06 01:01:00,
2013-05-05 21:11:00,51.0,49.0,29.83,SSW,193,0.0,0.0,94,0.05,,,1.47,,2013-05-06 01:11:00,
2013-05-05 21:21:00,51.0,50.0,29.83,SSW,196,0.0,1.0,95,0.06,,,1.41,,2013-05-06 01:21:00,
2013-05-05 21:31:00,51.0,50.0,29.81,SSW,196,0.0,0.0,95,0.07,,,1.42,,2013-05-06 01:31:00,
2013-05-05 21:42:00,51.0,50.0,29.81,SSW,196,0.0,0.0,95,0.07,,,1.42,,2013-05-06 01:42:00,
2013-05-05 21:52:00,51.0,50.0,29.83,SSW,196,0.0,0.0,96,0.06,,,1.42,,2013-05-06 01:52:00,
2013-05-05 22:02:00,51.0,50.0,29.84,SSW,196,0.0,0.0,96,0.04,,,1.42,,2013-05-06 02:02:00,
2013-05-05 22:12:00,51.0,50.0,29.84,SSW,196,0.0,0.0,96,0.04,,,1.42,,2013-05-06 02:12:00,
2013-05-05 22:21:00,51.0,50.0,29.84,SSW,196,0.0,0.0,96,0.01,,,1.29,,2013-05-06 02:21:00,
2013-05-05 22:32:00,51.0,50.0,29.84,SSW,196,0.0,1.0,96,0.02,,,1.31,,2013-05-06 02:32:00,
2013-05-05 22:42:00,51.0,50.0,29.84,SSW,196,0.0,1.0,96,0.02,,,1.31,,2013-05-06 02:42:00,
2013-05-05 22:52:00,51.0,50.0,29.84,SSW,196,0.0,0.0,96,0.06,,,1.35,,2013-05-06 02:52:00,
2013-05-05 23:02:00,51.0,50.0,29.85,SSW,196,0.0,0.0,96,0.09,,,1.38,,2013-05-06 03:02:00,
2013-05-05 23:11:00,51.0,50.0,29.85,SSW,196,0.0,0.0,96,0.09,,,1.38,,2013-05-06 03:11:00,
2013-05-05 23:22:00,51.0,50.0,29.85,SSW,196,0.0,0.0,97,0.13,,,1.33,,2013-05-06 03:22:00,
2013-05-05 23:33:00,51.0,50.0,29.86,SSW,196,0.0,0.0,97,0.14,,,1.36,,2013-05-06 03:33:00,
2013-05-05 23:42:00,51.0,50.0,29.86,SSW,196,0.0,0.0,97,0.14,,,1.36,,2013-05-06 03:42:00,
2013-05-05 23:52:00,51.0,50.0,29.86,SSW,196,0.0,0.0,97,0.13,,,1.40,,2013-05-06 03:52:00,